| time (UTC) | temp F | wind direction | speed MPH | gust MPH | rain 1hr in | rain 24hr in | rain mn in | humidity % | barometer mb |
| 20260831103020 | 58 | 185 | 0.0 | 0.0 | 0.00 | 0.01 | 0.00 | 70 | 1009.2 |
| 20260831102521 | 58 | 185 | 0.0 | 0.0 | 0.00 | 0.01 | 0.00 | 70 | 1009.1 |
| 20260831102022 | 58 | 185 | 0.0 | 0.0 | 0.00 | 0.01 | 0.00 | 70 | 1009.0 |
| 20260831101517 | 58 | 185 | 0.0 | 0.0 | 0.00 | 0.01 | 0.00 | 69 | 1009.0 |
| 20260831101018 | 59 | 185 | 0.0 | 0.0 | 0.00 | 0.01 | 0.00 | 69 | 1009.0 |
| 20260831100517 | 59 | 185 | 0.0 | 0.0 | 0.00 | 0.01 | 0.00 | 69 | 1008.9 |
| 20260831100023 | 59 | 185 | 0.0 | 0.0 | 0.00 | 0.01 | 0.00 | 69 | 1008.9 |
| 20260831095515 | 59 | 185 | 0.0 | 0.0 | 0.00 | 0.01 | 0.00 | 69 | 1008.9 |
| 20260831095015 | 59 | 185 | 0.0 | 0.0 | 0.00 | 0.01 | 0.00 | 69 | 1009.0 |
| 20260831094515 | 59 | 185 | 0.0 | 0.0 | 0.00 | 0.01 | 0.00 | 69 | 1008.9 |
| 20260831094017 | 59 | 185 | 0.0 | 0.0 | 0.00 | 0.01 | 0.00 | 68 | 1008.9 |
| 20260831093514 | 59 | 185 | 0.0 | 0.0 | 0.00 | 0.01 | 0.00 | 69 | 1008.9 |
| 20260831093016 | 59 | 185 | 0.0 | 0.0 | 0.00 | 0.01 | 0.00 | 69 | 1009.0 |
| 20260831092517 | 59 | 185 | 0.0 | 0.0 | 0.00 | 0.01 | 0.00 | 69 | 1008.9 |
| 20260831092012 | 59 | 185 | 0.0 | 0.0 | 0.00 | 0.01 | 0.00 | 69 | 1008.9 |
| 20260831091512 | 59 | 185 | 0.0 | 0.0 | 0.00 | 0.01 | 0.00 | 69 | 1008.9 |
| 20260831091013 | 59 | 185 | 0.0 | 0.0 | 0.00 | 0.01 | 0.00 | 69 | 1008.7 |
| 20260831090513 | 59 | 185 | 0.0 | 0.0 | 0.00 | 0.01 | 0.00 | 69 | 1008.7 |
| 20260831090012 | 59 | 185 | 0.0 | 0.0 | 0.00 | 0.01 | 0.00 | 69 | 1008.7 |
| 20260831085511 | 59 | 185 | 0.0 | 0.0 | 0.00 | 0.01 | 0.00 | 70 | 1008.7 |
| 20260831085011 | 59 | 185 | 0.0 | 0.0 | 0.00 | 0.01 | 0.00 | 70 | 1008.8 |
| 20260831084510 | 59 | 185 | 0.0 | 0.0 | 0.00 | 0.01 | 0.00 | 70 | 1008.9 |
| 20260831084009 | 59 | 185 | 0.0 | 0.0 | 0.00 | 0.01 | 0.00 | 71 | 1008.9 |
| 20260831083508 | 59 | 185 | 0.0 | 0.0 | 0.00 | 0.01 | 0.00 | 70 | 1009.0 |
| 20260831083014 | 59 | 185 | 0.0 | 0.0 | 0.00 | 0.01 | 0.00 | 70 | 1009.0 |
| 20260831082508 | 59 | 185 | 0.0 | 0.0 | 0.00 | 0.01 | 0.00 | 69 | 1009.0 |
| 20260831082007 | 59 | 185 | 0.0 | 0.0 | 0.00 | 0.01 | 0.00 | 69 | 1009.0 |
| 20260831081507 | 59 | 185 | 0.0 | 0.0 | 0.00 | 0.01 | 0.00 | 69 | 1009.0 |
| 20260831081006 | 60 | 185 | 0.0 | 0.0 | 0.00 | 0.01 | 0.00 | 69 | 1009.1 |
| 20260831080505 | 60 | 185 | 0.0 | 0.0 | 0.00 | 0.01 | 0.00 | 69 | 1009.1 |
| 20260831080017 | 60 | 185 | 0.0 | 0.0 | 0.00 | 0.01 | 0.00 | 69 | 1009.2 |
| 20260831075503 | 60 | 185 | 0.0 | 0.0 | 0.00 | 0.01 | 0.00 | 68 | 1009.3 |
| 20260831075002 | 61 | 185 | 0.0 | 0.0 | 0.00 | 0.01 | 0.00 | 67 | 1009.3 |
| 20260831074501 | 61 | 185 | 0.0 | 0.0 | 0.00 | 0.01 | 0.00 | 67 | 1009.4 |
| 20260831074100 | 61 | 185 | 0.0 | 0.0 | 0.00 | 0.01 | 0.00 | 67 | 1009.4 |
| 20260831073559 | 62 | 185 | 0.0 | 0.0 | 0.00 | 0.01 | 0.00 | 66 | 1009.4 |
| 20260831073100 | 62 | 185 | 0.0 | 0.0 | 0.00 | 0.01 | 0.00 | 65 | 1009.3 |
| 20260831072557 | 62 | 185 | 0.0 | 0.0 | 0.00 | 0.01 | 0.00 | 65 | 1009.2 |
| 20260831072156 | 62 | 185 | 0.0 | 0.0 | 0.00 | 0.01 | 0.00 | 65 | 1009.3 |
| 20260831071556 | 62 | 185 | 0.0 | 0.0 | 0.00 | 0.01 | 0.00 | 65 | 1009.4 |
| 20260831071056 | 62 | 185 | 0.0 | 0.0 | 0.00 | 0.01 | 0.00 | 64 | 1009.4 |
| 20260831070555 | 62 | 183 | 0.0 | 0.0 | 0.00 | 0.01 | 0.00 | 64 | 1009.5 |
| 20260831070112 | 62 | 183 | 0.0 | 0.0 | 0.00 | 0.01 | 0.00 | 64 | 1009.5 |
| 20260831065554 | 62 | 181 | 0.0 | 1.0 | 0.00 | 0.01 | 0.00 | 65 | 1009.7 |
| 20260831065056 | 62 | 183 | 0.0 | 1.0 | 0.00 | 0.01 | 0.00 | 65 | 1009.7 |
| 20260831064552 | 62 | 182 | 0.0 | 3.0 | 0.00 | 0.01 | 0.00 | 65 | 1009.7 |
| 20260831064052 | 62 | 190 | 0.0 | 4.0 | 0.00 | 0.01 | 0.00 | 65 | 1009.7 |
| 20260831063552 | 62 | 177 | 0.0 | 4.0 | 0.00 | 0.01 | 0.00 | 65 | 1009.8 |
| 20260831063053 | 62 | 191 | 0.0 | 3.0 | 0.00 | 0.01 | 0.00 | 65 | 1009.9 |
| 20260831062551 | 62 | 198 | 0.0 | 2.0 | 0.00 | 0.01 | 0.00 | 66 | 1010.0 |
| 20260831062052 | 62 | 212 | 0.0 | 2.0 | 0.00 | 0.01 | 0.00 | 66 | 1009.9 |
| 20260831061551 | 63 | 196 | 0.0 | 0.0 | 0.00 | 0.01 | 0.00 | 66 | 1010.0 |
| 20260831061048 | 63 | 181 | 0.0 | 0.0 | 0.00 | 0.01 | 0.00 | 66 | 1010.1 |
| 20260831060549 | 63 | 181 | 0.0 | 0.0 | 0.00 | 0.01 | 0.00 | 66 | 1010.3 |
| 20260831060046 | 63 | 181 | 0.0 | 0.0 | 0.00 | 0.01 | 0.00 | 66 | 1010.4 |
| 20260831055549 | 63 | 209 | 0.0 | 0.0 | 0.00 | 0.01 | 0.01 | 66 | 1010.3 |
| 20260831055047 | 63 | 226 | 0.0 | 0.0 | 0.00 | 0.01 | 0.01 | 66 | 1010.3 |
| 20260831054545 | 64 | 226 | 0.0 | 0.0 | 0.00 | 0.01 | 0.01 | 66 | 1010.4 |
| 20260831054044 | 64 | 226 | 0.0 | 0.0 | 0.00 | 0.01 | 0.01 | 64 | 1010.4 |
| 20260831053544 | 64 | 226 | 0.0 | 0.0 | 0.00 | 0.01 | 0.01 | 64 | 1010.3 |
| 20260831053044 | 64 | 226 | 0.0 | 0.0 | 0.00 | 0.01 | 0.01 | 64 | 1010.4 |
| 20260831052548 | 64 | 226 | 0.0 | 0.0 | 0.00 | 0.01 | 0.01 | 64 | 1010.3 |
| 20260831052143 | 64 | 226 | 0.0 | 0.0 | 0.00 | 0.01 | 0.01 | 65 | 1010.3 |
| 20260831051550 | 64 | 226 | 0.0 | 0.0 | 0.00 | 0.01 | 0.01 | 65 | 1010.3 |
| 20260831051044 | 64 | 226 | 0.0 | 0.0 | 0.00 | 0.01 | 0.01 | 65 | 1010.1 |
| 20260831050543 | 65 | 226 | 0.0 | 0.0 | 0.00 | 0.01 | 0.01 | 64 | 1010.2 |
| 20260831050044 | 65 | 227 | 0.0 | 2.0 | 0.00 | 0.01 | 0.01 | 64 | 1010.5 |
| 20260831045543 | 65 | 185 | 0.0 | 5.0 | 0.00 | 0.01 | 0.01 | 64 | 1010.5 |
| 20260831045043 | 65 | 194 | 0.0 | 12.0 | 0.00 | 0.01 | 0.01 | 64 | 1010.4 |
| 20260831044551 | 66 | 143 | 1.0 | 12.0 | 0.00 | 0.01 | 0.01 | 64 | 1010.2 |
| 20260831044043 | 66 | 157 | 0.0 | 4.0 | 0.00 | 0.01 | 0.01 | 63 | 1010.6 |
| 20260831043542 | 66 | 160 | 0.0 | 2.0 | 0.00 | 0.01 | 0.01 | 61 | 1010.7 |
| 20260831043041 | 66 | 181 | 0.0 | 2.0 | 0.00 | 0.01 | 0.01 | 61 | 1010.7 |
| 20260831042542 | 65 | 202 | 0.0 | 2.0 | 0.00 | 0.01 | 0.01 | 62 | 1010.5 |
| 20260831042040 | 65 | 210 | 0.0 | 2.0 | 0.00 | 0.01 | 0.01 | 63 | 1010.4 |
| 20260831041548 | 65 | 198 | 0.0 | 1.0 | 0.00 | 0.01 | 0.01 | 64 | 1010.1 |
| 20260831041040 | 64 | 193 | 0.0 | 1.0 | 0.00 | 0.01 | 0.01 | 66 | 1009.8 |
| 20260831040538 | 64 | 185 | 0.0 | 0.0 | 0.00 | 0.01 | 0.01 | 68 | 1009.7 |
| 20260831040038 | 64 | 186 | 0.0 | 0.0 | 0.00 | 0.01 | 0.01 | 68 | 1009.4 |
| 20260831035539 | 64 | 186 | 0.0 | 0.0 | 0.00 | 0.01 | 0.01 | 69 | 1009.2 |
| 20260831035037 | 64 | 186 | 0.0 | 0.0 | 0.00 | 0.01 | 0.01 | 69 | 1009.2 |
| 20260831034537 | 64 | 186 | 0.0 | 0.0 | 0.00 | 0.01 | 0.01 | 71 | 1009.2 |
| 20260831034037 | 64 | 186 | 0.0 | 0.0 | 0.00 | 0.01 | 0.01 | 71 | 1009.1 |
| 20260831033537 | 63 | 186 | 0.0 | 0.0 | 0.00 | 0.01 | 0.01 | 72 | 1009.5 |
| 20260831033036 | 63 | 186 | 0.0 | 0.0 | 0.00 | 0.01 | 0.01 | 74 | 1009.3 |
| 20260831032537 | 63 | 186 | 0.0 | 0.0 | 0.00 | 0.01 | 0.01 | 74 | 1009.6 |
| 20260831032036 | 63 | 186 | 0.0 | 0.0 | 0.00 | 0.01 | 0.01 | 74 | 1009.8 |
| 20260831031538 | 63 | 186 | 0.0 | 0.0 | 0.00 | 0.01 | 0.01 | 74 | 1009.9 |
| 20260831031035 | 63 | 186 | 0.0 | 0.0 | 0.00 | 0.01 | 0.01 | 74 | 1009.9 |
| 20260831030537 | 63 | 186 | 0.0 | 0.0 | 0.00 | 0.01 | 0.01 | 76 | 1009.8 |
| 20260831030037 | 63 | 186 | 0.0 | 0.0 | 0.00 | 0.01 | 0.01 | 77 | 1009.9 |
| 20260831025534 | 63 | 186 | 0.0 | 0.0 | 0.00 | 0.01 | 0.01 | 76 | 1009.7 |
| 20260831025033 | 63 | 186 | 0.0 | 0.0 | 0.00 | 0.01 | 0.01 | 77 | 1009.6 |
| 20260831024534 | 63 | 186 | 0.0 | 0.0 | 0.00 | 0.01 | 0.01 | 76 | 1009.6 |
| 20260831024034 | 63 | 186 | 0.0 | 0.0 | 0.00 | 0.01 | 0.01 | 76 | 1009.5 |
| 20260831023534 | 63 | 186 | 0.0 | 0.0 | 0.00 | 0.01 | 0.01 | 76 | 1009.3 |
| 20260831023031 | 63 | 186 | 0.0 | 0.0 | 0.00 | 0.01 | 0.01 | 75 | 1009.2 |
| 20260831022534 | 63 | 186 | 0.0 | 0.0 | 0.00 | 0.01 | 0.01 | 75 | 1008.9 |
| 20260831022032 | 63 | 186 | 0.0 | 0.0 | 0.00 | 0.01 | 0.01 | 74 | 1008.7 |
| 20260831021537 | 64 | 186 | 0.0 | 0.0 | 0.00 | 0.01 | 0.01 | 73 | 1008.7 |
| 20260831021032 | 64 | 186 | 0.0 | 0.0 | 0.00 | 0.01 | 0.01 | 72 | 1008.6 |
| 20260831020531 | 64 | 186 | 0.0 | 0.0 | 0.00 | 0.01 | 0.01 | 71 | 1008.6 |
| 20260831020031 | 65 | 186 | 0.0 | 0.0 | 0.00 | 0.01 | 0.01 | 70 | 1008.5 |
| 20260831015529 | 65 | 186 | 0.0 | 0.0 | 0.00 | 0.01 | 0.01 | 70 | 1008.5 |
| 20260831015030 | 66 | 186 | 0.0 | 0.0 | 0.00 | 0.01 | 0.01 | 69 | 1008.4 |
| 20260831014532 | 66 | 186 | 0.0 | 0.0 | 0.00 | 0.01 | 0.01 | 69 | 1008.4 |
| 20260831014030 | 66 | 186 | 0.0 | 0.0 | 0.00 | 0.01 | 0.01 | 68 | 1008.4 |
| 20260831013531 | 66 | 186 | 0.0 | 0.0 | 0.00 | 0.01 | 0.01 | 67 | 1008.4 |
| 20260831013030 | 66 | 186 | 0.0 | 0.0 | 0.00 | 0.01 | 0.01 | 67 | 1008.4 |
| 20260831012531 | 67 | 186 | 0.0 | 0.0 | 0.00 | 0.01 | 0.01 | 66 | 1008.3 |
| 20260831012030 | 67 | 186 | 0.0 | 0.0 | 0.00 | 0.01 | 0.01 | 66 | 1008.3 |
| 20260831011534 | 67 | 186 | 0.0 | 0.0 | 0.00 | 0.01 | 0.01 | 66 | 1008.3 |
| 20260831011028 | 67 | 186 | 0.0 | 0.0 | 0.00 | 0.01 | 0.01 | 67 | 1008.4 |
| 20260831010529 | 67 | 186 | 0.0 | 0.0 | 0.00 | 0.01 | 0.01 | 68 | 1008.4 |
| 20260831010028 | 67 | 186 | 0.0 | 0.0 | 0.00 | 0.01 | 0.01 | 66 | 1008.5 |
| 20260831005528 | 67 | 186 | 0.0 | 0.0 | 0.00 | 0.01 | 0.01 | 66 | 1008.5 |
| 20260831005032 | 67 | 186 | 0.0 | 0.0 | 0.00 | 0.01 | 0.01 | 65 | 1008.5 |
| 20260831004528 | 67 | 186 | 0.0 | 0.0 | 0.00 | 0.01 | 0.01 | 65 | 1008.5 |
| 20260831004033 | 67 | 186 | 0.0 | 0.0 | 0.00 | 0.01 | 0.01 | 65 | 1008.5 |
| 20260831003527 | 67 | 186 | 0.0 | 0.0 | 0.00 | 0.01 | 0.01 | 64 | 1008.5 |
| 20260831003028 | 67 | 186 | 0.0 | 0.0 | 0.00 | 0.01 | 0.01 | 65 | 1008.4 |
| 20260831002528 | 67 | 186 | 0.0 | 0.0 | 0.00 | 0.01 | 0.01 | 64 | 1008.5 |
| 20260831002027 | 66 | 187 | 0.0 | 0.0 | 0.00 | 0.01 | 0.01 | 65 | 1008.5 |
| 20260831001527 | 66 | 187 | 0.0 | 0.0 | 0.00 | 0.01 | 0.01 | 66 | 1008.5 |
| 20260831001031 | 66 | 187 | 0.0 | 0.0 | 0.00 | 0.01 | 0.01 | 65 | 1008.6 |
| 20260831000527 | 66 | 187 | 0.0 | 0.0 | 0.00 | 0.01 | 0.01 | 67 | 1008.8 |
| 20260831000037 | 66 | 187 | 0.0 | 0.0 | 0.00 | 0.01 | 0.01 | 69 | 1008.9 |
| 20260830235527 | 65 | 187 | 0.0 | 0.0 | 0.00 | 0.03 | 0.01 | 70 | 1009.0 |
| 20260830235028 | 65 | 187 | 0.0 | 0.0 | 0.00 | 0.03 | 0.01 | 69 | 1009.2 |
| 20260830234525 | 65 | 187 | 0.0 | 0.0 | 0.00 | 0.03 | 0.01 | 69 | 1009.1 |
| 20260830234025 | 65 | 187 | 0.0 | 0.0 | 0.00 | 0.03 | 0.01 | 71 | 1009.2 |
| 20260830233530 | 65 | 187 | 0.0 | 0.0 | 0.00 | 0.03 | 0.01 | 70 | 1009.1 |
| 20260830233034 | 65 | 187 | 0.0 | 0.0 | 0.00 | 0.03 | 0.01 | 71 | 1009.0 |
| 20260830232527 | 65 | 187 | 0.0 | 0.0 | 0.00 | 0.03 | 0.01 | 70 | 1009.0 |
| 20260830232026 | 65 | 187 | 0.0 | 0.0 | 0.00 | 0.03 | 0.01 | 70 | 1009.0 |
| 20260830231530 | 65 | 187 | 0.0 | 6.0 | 0.00 | 0.03 | 0.01 | 71 | 1009.0 |
| 20260830231026 | 65 | 187 | 0.0 | 6.0 | 0.00 | 0.03 | 0.01 | 71 | 1009.0 |
| 20260830230525 | 65 | 190 | 0.0 | 4.0 | 0.01 | 0.03 | 0.01 | 71 | 1009.3 |
| 20260830230025 | 65 | 199 | 0.0 | 0.0 | 0.01 | 0.03 | 0.01 | 71 | 1009.3 |
| 20260830225523 | 65 | 264 | 0.0 | 0.0 | 0.01 | 0.03 | 0.01 | 71 | 1009.3 |
| 20260830225023 | 65 | 264 | 0.0 | 0.0 | 0.01 | 0.03 | 0.01 | 69 | 1009.2 |
| 20260830224523 | 66 | 264 | 0.0 | 0.0 | 0.01 | 0.03 | 0.01 | 68 | 1009.0 |
| 20260830224023 | 66 | 264 | 0.0 | 0.0 | 0.01 | 0.03 | 0.01 | 69 | 1008.9 |
| 20260830223524 | 66 | 264 | 0.0 | 0.0 | 0.01 | 0.03 | 0.01 | 69 | 1008.9 |
| 20260830223022 | 67 | 264 | 0.0 | 0.0 | 0.01 | 0.03 | 0.01 | 69 | 1008.9 |
| 20260830222523 | 67 | 264 | 0.0 | 0.0 | 0.01 | 0.03 | 0.01 | 67 | 1008.9 |
| 20260830222026 | 68 | 264 | 0.0 | 4.0 | 0.01 | 0.03 | 0.01 | 64 | 1008.6 |
| 20260830221522 | 68 | 264 | 0.0 | 11.0 | 0.01 | 0.03 | 0.01 | 62 | 1008.6 |
| 20260830221022 | 69 | 264 | 0.0 | 16.0 | 0.01 | 0.03 | 0.01 | 60 | 1008.8 |
| 20260830220522 | 70 | 259 | 1.0 | 17.0 | 0.00 | 0.02 | 0.00 | 54 | 1009.0 |
| 20260830220022 | 70 | 248 | 4.0 | 17.0 | 0.00 | 0.02 | 0.00 | 49 | 1009.2 |
| 20260830215520 | 71 | 250 | 2.0 | 17.0 | 0.00 | 0.02 | 0.00 | 47 | 1008.8 |
| 20260830215023 | 71 | 270 | 3.0 | 22.0 | 0.00 | 0.02 | 0.00 | 45 | 1008.3 |
| 20260830214518 | 72 | 270 | 6.0 | 28.0 | 0.00 | 0.02 | 0.00 | 44 | 1008.2 |
| 20260830214017 | 73 | 281 | 8.0 | 28.0 | 0.00 | 0.02 | 0.00 | 43 | 1008.1 |
| 20260830213515 | 74 | 264 | 5.0 | 24.0 | 0.00 | 0.02 | 0.00 | 42 | 1008.0 |
| 20260830213019 | 75 | 258 | 2.0 | 24.0 | 0.00 | 0.02 | 0.00 | 42 | 1007.7 |
| 20260830212514 | 76 | 247 | 9.0 | 25.0 | 0.00 | 0.02 | 0.00 | 38 | 1007.6 |
| 20260830212014 | 78 | 261 | 4.0 | 26.0 | 0.00 | 0.02 | 0.00 | 39 | 1007.6 |
| 20260830211516 | 79 | 227 | 9.0 | 31.0 | 0.00 | 0.02 | 0.00 | 38 | 1007.5 |
| 20260830211014 | 80 | 278 | 6.0 | 31.0 | 0.00 | 0.02 | 0.00 | 39 | 1007.3 |
| 20260830210512 | 81 | 206 | 0.0 | 2.0 | 0.00 | 0.02 | 0.00 | 37 | 1006.8 |
| 20260830210025 | 80 | 206 | 0.0 | 0.0 | 0.00 | 0.02 | 0.00 | 38 | 1006.4 |
| 20260830205515 | 80 | 206 | 0.0 | 0.0 | 0.00 | 0.02 | 0.00 | 43 | 1006.2 |
| 20260830205012 | 80 | 206 | 0.0 | 0.0 | 0.00 | 0.02 | 0.00 | 36 | 1006.2 |
| 20260830204511 | 80 | 206 | 0.0 | 0.0 | 0.00 | 0.02 | 0.00 | 36 | 1006.0 |
| 20260830204011 | 80 | 206 | 0.0 | 0.0 | 0.00 | 0.02 | 0.00 | 35 | 1006.0 |
| 20260830203513 | 80 | 206 | 0.0 | 0.0 | 0.00 | 0.02 | 0.00 | 37 | 1006.0 |
| 20260830203011 | 80 | 206 | 0.0 | 0.0 | 0.00 | 0.02 | 0.00 | 37 | 1006.0 |
| 20260830202509 | 80 | 206 | 0.0 | 0.0 | 0.00 | 0.02 | 0.00 | 37 | 1006.0 |
| 20260830202013 | 80 | 206 | 0.0 | 0.0 | 0.00 | 0.02 | 0.00 | 34 | 1006.0 |
| 20260830201509 | 80 | 206 | 0.0 | 0.0 | 0.00 | 0.02 | 0.00 | 34 | 1005.9 |
| 20260830201008 | 80 | 206 | 0.0 | 0.0 | 0.00 | 0.02 | 0.00 | 37 | 1005.9 |
| 20260830200507 | 80 | 206 | 0.0 | 0.0 | 0.00 | 0.02 | 0.00 | 36 | 1005.9 |
| 20260830200007 | 80 | 209 | 0.0 | 0.0 | 0.00 | 0.02 | 0.00 | 39 | 1005.8 |
| 20260830195506 | 79 | 209 | 0.0 | 0.0 | 0.00 | 0.02 | 0.00 | 38 | 1005.8 |
| 20260830195005 | 79 | 209 | 0.0 | 0.0 | 0.00 | 0.02 | 0.00 | 36 | 1005.9 |
| 20260830194504 | 79 | 209 | 0.0 | 0.0 | 0.00 | 0.02 | 0.00 | 40 | 1005.8 |
| 20260830194003 | 79 | 209 | 0.0 | 0.0 | 0.00 | 0.02 | 0.00 | 38 | 1005.9 |
| 20260830193603 | 78 | 209 | 0.0 | 0.0 | 0.00 | 0.02 | 0.00 | 37 | 1006.0 |
| 20260830193001 | 78 | 209 | 0.0 | 0.0 | 0.00 | 0.02 | 0.00 | 42 | 1006.1 |
| 20260830192502 | 78 | 209 | 0.0 | 0.0 | 0.00 | 0.02 | 0.00 | 39 | 1006.1 |
| 20260830192001 | 78 | 210 | 0.0 | 0.0 | 0.00 | 0.02 | 0.00 | 41 | 1006.1 |
| 20260830191600 | 78 | 210 | 0.0 | 0.0 | 0.00 | 0.02 | 0.00 | 42 | 1006.1 |
| 20260830191100 | 78 | 210 | 0.0 | 0.0 | 0.00 | 0.02 | 0.00 | 41 | 1006.0 |
| 20260830190600 | 78 | 210 | 0.0 | 0.0 | 0.00 | 0.02 | 0.00 | 43 | 1006.1 |
| 20260830190059 | 78 | 210 | 0.0 | 0.0 | 0.00 | 0.02 | 0.00 | 40 | 1006.1 |
| 20260830185559 | 78 | 266 | 0.0 | 0.0 | 0.00 | 0.02 | 0.00 | 43 | 1006.2 |
| 20260830185101 | 77 | 266 | 0.0 | 0.0 | 0.00 | 0.02 | 0.00 | 41 | 1006.2 |
| 20260830184557 | 77 | 266 | 0.0 | 0.0 | 0.00 | 0.02 | 0.00 | 43 | 1006.2 |
| 20260830184057 | 77 | 266 | 0.0 | 0.0 | 0.00 | 0.02 | 0.00 | 45 | 1006.3 |
| 20260830183557 | 77 | 266 | 0.0 | 0.0 | 0.00 | 0.02 | 0.00 | 42 | 1006.5 |
| 20260830183055 | 77 | 266 | 0.0 | 0.0 | 0.00 | 0.02 | 0.00 | 45 | 1006.6 |
| 20260830182554 | 77 | 266 | 0.0 | 0.0 | 0.00 | 0.02 | 0.00 | 45 | 1006.7 |
| 20260830182053 | 76 | 266 | 0.0 | 0.0 | 0.00 | 0.02 | 0.00 | 44 | 1006.7 |
| 20260830181553 | 76 | 266 | 0.0 | 0.0 | 0.00 | 0.02 | 0.00 | 45 | 1006.7 |
| 20260830181052 | 76 | 266 | 0.0 | 0.0 | 0.00 | 0.02 | 0.00 | 45 | 1006.6 |
| 20260830180551 | 75 | 266 | 0.0 | 0.0 | 0.00 | 0.02 | 0.00 | 45 | 1006.6 |
| 20260830180052 | 75 | 266 | 0.0 | 0.0 | 0.00 | 0.02 | 0.00 | 44 | 1006.7 |
| 20260830175550 | 75 | 266 | 0.0 | 1.0 | 0.00 | 0.02 | 0.00 | 46 | 1007.0 |
| 20260830175050 | 75 | 266 | 0.0 | 1.0 | 0.00 | 0.02 | 0.00 | 49 | 1007.0 |
| 20260830174548 | 75 | 129 | 0.0 | 0.0 | 0.00 | 0.02 | 0.00 | 48 | 1007.1 |
| 20260830174045 | 74 | 129 | 0.0 | 0.0 | 0.00 | 0.02 | 0.00 | 49 | 1007.1 |
| 20260830173545 | 74 | 129 | 0.0 | 0.0 | 0.00 | 0.02 | 0.00 | 47 | 1007.1 |
| 20260830173043 | 73 | 129 | 0.0 | 0.0 | 0.00 | 0.02 | 0.00 | 53 | 1007.1 |
| 20260830172545 | 73 | 129 | 0.0 | 0.0 | 0.00 | 0.02 | 0.00 | 49 | 1007.1 |
| 20260830172041 | 73 | 129 | 0.0 | 0.0 | 0.00 | 0.02 | 0.00 | 52 | 1007.3 |
| 20260830171539 | 72 | 129 | 0.0 | 0.0 | 0.00 | 0.02 | 0.00 | 52 | 1007.3 |
| 20260830171041 | 72 | 129 | 0.0 | 0.0 | 0.00 | 0.02 | 0.00 | 53 | 1007.3 |
| 20260830170536 | 72 | 129 | 0.0 | 0.0 | 0.00 | 0.02 | 0.00 | 55 | 1007.4 |
| 20260830170035 | 71 | 129 | 0.0 | 0.0 | 0.00 | 0.02 | 0.00 | 55 | 1007.5 |
| 20260830165533 | 71 | 129 | 0.0 | 0.0 | 0.00 | 0.02 | 0.00 | 57 | 1007.5 |
| 20260830165034 | 70 | 129 | 0.0 | 0.0 | 0.00 | 0.02 | 0.00 | 58 | 1007.6 |
| 20260830164553 | 70 | 129 | 0.0 | 0.0 | 0.00 | 0.02 | 0.00 | 56 | 1007.7 |
| 20260830164030 | 69 | 129 | 0.0 | 0.0 | 0.00 | 0.02 | 0.00 | 57 | 1007.6 |
| 20260830163528 | 69 | 129 | 0.0 | 0.0 | 0.00 | 0.02 | 0.00 | 60 | 1007.7 |
| 20260830163028 | 68 | 129 | 0.0 | 0.0 | 0.00 | 0.02 | 0.00 | 61 | 1007.6 |
| 20260830162526 | 68 | 129 | 0.0 | 0.0 | 0.00 | 0.02 | 0.00 | 57 | 1007.5 |
| 20260830162023 | 68 | 129 | 0.0 | 0.0 | 0.00 | 0.02 | 0.00 | 64 | 1007.6 |
| 20260830161522 | 68 | 129 | 0.0 | 0.0 | 0.00 | 0.02 | 0.00 | 64 | 1007.5 |
| 20260830161021 | 67 | 129 | 0.0 | 0.0 | 0.00 | 0.02 | 0.00 | 64 | 1007.5 |
| 20260830160520 | 67 | 129 | 0.0 | 0.0 | 0.00 | 0.02 | 0.00 | 63 | 1007.5 |
| 20260830160020 | 67 | 129 | 0.0 | 0.0 | 0.00 | 0.02 | 0.00 | 64 | 1007.3 |
| 20260830155518 | 67 | 129 | 0.0 | 0.0 | 0.00 | 0.02 | 0.00 | 64 | 1007.3 |
| 20260830155018 | 67 | 129 | 0.0 | 0.0 | 0.00 | 0.02 | 0.00 | 63 | 1007.3 |
| 20260830154518 | 67 | 129 | 0.0 | 0.0 | 0.00 | 0.02 | 0.00 | 63 | 1007.1 |
| 20260830154017 | 66 | 129 | 0.0 | 0.0 | 0.00 | 0.02 | 0.00 | 65 | 1007.0 |
| 20260830153518 | 66 | 129 | 0.0 | 0.0 | 0.00 | 0.02 | 0.00 | 64 | 1006.9 |
| 20260830153016 | 66 | 129 | 0.0 | 0.0 | 0.00 | 0.02 | 0.00 | 63 | 1007.0 |
| 20260830152513 | 66 | 129 | 0.0 | 0.0 | 0.00 | 0.02 | 0.00 | 64 | 1006.8 |
| 20260830152013 | 65 | 129 | 0.0 | 0.0 | 0.00 | 0.02 | 0.00 | 66 | 1006.8 |
| 20260830151511 | 65 | 129 | 0.0 | 0.0 | 0.00 | 0.02 | 0.00 | 68 | 1006.7 |
| 20260830151010 | 64 | 129 | 0.0 | 0.0 | 0.00 | 0.02 | 0.00 | 71 | 1006.6 |
| 20260830150510 | 64 | 129 | 0.0 | 0.0 | 0.00 | 0.02 | 0.00 | 72 | 1006.7 |
| 20260830150009 | 64 | 129 | 0.0 | 0.0 | 0.00 | 0.02 | 0.00 | 71 | 1006.7 |
| 20260830145507 | 64 | 129 | 0.0 | 0.0 | 0.00 | 0.02 | 0.00 | 73 | 1006.7 |
| 20260830145009 | 64 | 129 | 0.0 | 0.0 | 0.00 | 0.02 | 0.00 | 72 | 1006.8 |
| 20260830144506 | 63 | 129 | 0.0 | 0.0 | 0.00 | 0.02 | 0.00 | 74 | 1006.9 |
| 20260830144004 | 63 | 129 | 0.0 | 0.0 | 0.00 | 0.02 | 0.00 | 71 | 1006.9 |
| 20260830143504 | 63 | 129 | 0.0 | 0.0 | 0.00 | 0.02 | 0.00 | 72 | 1006.9 |
| 20260830143003 | 63 | 129 | 0.0 | 0.0 | 0.00 | 0.02 | 0.00 | 72 | 1006.8 |
| 20260830142503 | 63 | 129 | 0.0 | 0.0 | 0.00 | 0.02 | 0.00 | 73 | 1006.8 |
| 20260830142002 | 62 | 129 | 0.0 | 0.0 | 0.00 | 0.02 | 0.00 | 70 | 1006.8 |
| 20260830141600 | 62 | 129 | 0.0 | 0.0 | 0.00 | 0.02 | 0.00 | 72 | 1006.9 |
| 20260830141102 | 62 | 129 | 0.0 | 0.0 | 0.00 | 0.02 | 0.00 | 75 | 1006.7 |
| 20260830140600 | 61 | 129 | 0.0 | 0.0 | 0.00 | 0.02 | 0.00 | 73 | 1006.6 |
| 20260830140056 | 61 | 129 | 0.0 | 0.0 | 0.00 | 0.02 | 0.00 | 72 | 1006.9 |
| 20260830135554 | 61 | 129 | 0.0 | 0.0 | 0.00 | 0.02 | 0.00 | 73 | 1006.9 |
| 20260830135054 | 61 | 129 | 0.0 | 0.0 | 0.00 | 0.02 | 0.00 | 71 | 1006.7 |
| 20260830134554 | 61 | 129 | 0.0 | 0.0 | 0.00 | 0.02 | 0.00 | 71 | 1006.8 |
| 20260830134052 | 61 | 129 | 0.0 | 0.0 | 0.00 | 0.02 | 0.00 | 71 | 1006.6 |
| 20260830133550 | 61 | 129 | 0.0 | 0.0 | 0.00 | 0.02 | 0.00 | 71 | 1006.7 |
| 20260830133049 | 61 | 129 | 0.0 | 0.0 | 0.00 | 0.02 | 0.00 | 70 | 1006.8 |
| 20260830132547 | 61 | 129 | 0.0 | 0.0 | 0.00 | 0.02 | 0.00 | 70 | 1006.9 |
| 20260830132046 | 61 | 129 | 0.0 | 0.0 | 0.00 | 0.02 | 0.00 | 70 | 1006.8 |
| 20260830131546 | 61 | 129 | 0.0 | 0.0 | 0.00 | 0.02 | 0.00 | 69 | 1006.7 |
| 20260830131044 | 60 | 129 | 0.0 | 0.0 | 0.00 | 0.02 | 0.00 | 69 | 1006.5 |
| 20260830130545 | 60 | 129 | 0.0 | 0.0 | 0.00 | 0.02 | 0.00 | 70 | 1006.3 |
| 20260830130101 | 60 | 129 | 0.0 | 0.0 | 0.00 | 0.02 | 0.00 | 70 | 1006.2 |
| 20260830125542 | 60 | 129 | 0.0 | 0.0 | 0.00 | 0.02 | 0.00 | 69 | 1006.1 |
| 20260830125041 | 60 | 129 | 0.0 | 0.0 | 0.00 | 0.02 | 0.00 | 69 | 1005.9 |
| 20260830124540 | 60 | 129 | 0.0 | 0.0 | 0.00 | 0.02 | 0.00 | 69 | 1005.9 |
| 20260830124039 | 60 | 129 | 0.0 | 0.0 | 0.00 | 0.02 | 0.00 | 69 | 1005.8 |
| 20260830123539 | 59 | 129 | 0.0 | 0.0 | 0.00 | 0.02 | 0.00 | 71 | 1005.7 |
| 20260830123046 | 59 | 129 | 0.0 | 0.0 | 0.00 | 0.02 | 0.00 | 71 | 1005.7 |
| 20260830122538 | 59 | 129 | 0.0 | 0.0 | 0.00 | 0.02 | 0.00 | 71 | 1005.7 |
| 20260830122043 | 59 | 129 | 0.0 | 0.0 | 0.00 | 0.02 | 0.00 | 71 | 1005.7 |
| 20260830121538 | 59 | 129 | 0.0 | 0.0 | 0.00 | 0.02 | 0.00 | 71 | 1005.6 |
| 20260830121043 | 59 | 129 | 0.0 | 0.0 | 0.00 | 0.02 | 0.00 | 71 | 1005.7 |
| 20260830120537 | 59 | 129 | 0.0 | 0.0 | 0.00 | 0.02 | 0.00 | 72 | 1005.6 |
| 20260830120037 | 58 | 129 | 0.0 | 0.0 | 0.00 | 0.02 | 0.00 | 72 | 1005.6 |
| 20260830115537 | 58 | 129 | 0.0 | 0.0 | 0.00 | 0.02 | 0.00 | 73 | 1005.1 |
| 20260830115041 | 58 | 129 | 0.0 | 0.0 | 0.00 | 0.02 | 0.00 | 73 | 1004.9 |
| 20260830114541 | 58 | 129 | 0.0 | 0.0 | 0.00 | 0.02 | 0.00 | 74 | 1004.9 |
| 20260830114135 | 57 | 129 | 0.0 | 0.0 | 0.00 | 0.02 | 0.00 | 75 | 1004.9 |
| 20260830113534 | 57 | 129 | 0.0 | 0.0 | 0.00 | 0.02 | 0.00 | 76 | 1004.9 |
| 20260830113036 | 57 | 129 | 0.0 | 0.0 | 0.00 | 0.02 | 0.00 | 77 | 1004.9 |
| 20260830112534 | 57 | 129 | 0.0 | 0.0 | 0.00 | 0.02 | 0.00 | 77 | 1004.9 |
| 20260830112034 | 57 | 129 | 0.0 | 0.0 | 0.00 | 0.02 | 0.00 | 79 | 1004.9 |
| 20260830111533 | 56 | 129 | 0.0 | 0.0 | 0.00 | 0.02 | 0.00 | 79 | 1005.0 |
| 20260830111035 | 56 | 129 | 0.0 | 0.0 | 0.00 | 0.02 | 0.00 | 80 | 1005.1 |
| 20260830110534 | 56 | 129 | 0.0 | 0.0 | 0.00 | 0.02 | 0.00 | 81 | 1005.1 |
| 20260830110032 | 56 | 129 | 0.0 | 0.0 | 0.00 | 0.02 | 0.00 | 81 | 1005.2 |
| 20260830105531 | 57 | 129 | 0.0 | 0.0 | 0.00 | 0.02 | 0.00 | 80 | 1005.2 |
| 20260830105030 | 57 | 129 | 0.0 | 0.0 | 0.00 | 0.02 | 0.00 | 80 | 1005.1 |
| 20260830104530 | 57 | 129 | 0.0 | 0.0 | 0.00 | 0.02 | 0.00 | 80 | 1005.3 |
| 20260830104031 | 57 | 129 | 0.0 | 0.0 | 0.00 | 0.02 | 0.00 | 78 | 1005.2 |
| 20260830103531 | 57 | 129 | 0.0 | 0.0 | 0.00 | 0.02 | 0.00 | 79 | 1005.2 |